Weather in Belonosovo

Russia / Chelyabinsk Oblast     54°48′42″N   61°26′41″E
temp.,
°C
wind,
m/s
gust,
m/s
humid.,
%
clouds,
%
prec.,
mm/h
press.,
hPa
HPBL,
m
28 september, tue
tue2823:00+4ene91559100 0.1 10181298
02:00+3ene91568100 0.0 1018906
05:00+2ne91571100 0.0 1018864
08:00+2ne9167678 0.0 1018886
11:00+5ne101570100 0.1 10171219
14:00+7ene91457100 0.3 10181608
17:00+7ne81348100 0.3 10191712
20:00+5nne91353100 0.0 1020940
29 september, wed
wed2923:00+3nne8146295 0.0 1020686
02:00+2nne71379100 0.0 1021561
05:00+2nne61377100 0.0 1021516
08:00+2nne61281100 0.0 1023486
11:00+5nne7966100 0.2 1023710
14:00+8nne7846100 0.2 10222025
17:00+8nne684786 0.3 10231721
20:00+6n41053100 0.0 1024410
30 september, thu
thu3023:00+3n496393 0.1 1025245
02:00+1n367337 0.0 1025123
05:000nnw368025 0.0 1026117
08:00+1nnw387777 0.0 1026272
11:00+6n5752100 0.0 1025970
14:00+8nnw564299 0.0 10241485
17:00+8nnw5740100 0.0 10231751
20:00+3wnw49585 0.0 1024159
1 october, fri
fri123:00+2nw410745 0.0 1024209
02:00+3w4971100 0.0 1023269
05:00+4wnw51176100 0.0 1022726
08:00+3nw51196100 0.3 1023820
11:00+4nw5896100 0.6 1024854
14:00+6nnw587893 0.1 1025833
17:00+8n564954 0.2 10251334
20:00+4n2364100 0.0 102732
2 october, sat
sat223:00+3n1160100 0.0 102910
02:00+2wnw2263100 0.0 102916
05:00+1w227326 0.0 103018
08:00+3wsw2469100 0.0 1029128
11:00+6wsw3470100 0.0 1029201
14:00+10wnw765135 0.0 10281473
17:00+9nw5753100 0.0 10281109
20:00+5wnw48755 0.0 1029131